Regional Weather Roundup
Issued by NWS Northern Indiana

Home | Current Version | Previous Version | Text Only | Print | Product List | Glossary On
Versions: 1 2 3 4 5 6 7 8 9 10 11 12 13 14 15 16 17 18 19 20 21 22 23 24 25 26 27 28 29 30 31 32 33 34 35 36 37 38 39 40 41 42 43 44 45 46 47 48 49 50
000
ASUS43 KIWX 071310
RWRIWX

KIWX WEATHER ROUNDUP
NATIONAL WEATHER SERVICE NORTHERN INDIANA
800 AM EST SUN FEB 07 2016

NOTE: "FAIR" INDICATES FEW OR NO CLOUDS BELOW 12,000 FEET WITH NO
SIGNIFICANT WEATHER AND/OR OBSTRUCTIONS TO VISIBILITY.

* THESE STATIONS ARE NOT UNDER NWS QUALITY CONTROL. THEY ALSO MAY NOT
  REPORT WEATHER SUCH AS PRECIPITATION OR FOG.

INZ001>027-071400-
NORTHERN INDIANA

CITY           SKY/WX    TMP DP  RH WIND       PRES   REMARKS
GARY*          MOCLDY    39  28  65 S9G21     29.90F
VALPARAISO     MOCLDY    36  29  75 S12       29.92F
MICHIGAN CITY* PTCLDY    36  30  80 S9G17     29.92F
LAPORTE*       PTCLDY    36  32  85 S7        29.92F
SOUTH BEND     CLOUDY    34  27  75 SW10      29.93F WCI  26
ELKHART*         N/A     36  27  69 S8        29.93
GOSHEN         PTCLDY    35  26  69 S12       29.94F WCI  27
MONTICELLO*    CLOUDY    34  24  64 SW7       29.97S WCI  28
LOGANSPORT*    CLOUDY    32  27  80 S9        29.97F WCI  24
ROCHESTER*     CLOUDY    37  25  60 SW7       29.96F
WARSAW*        CLOUDY    34  27  75 SW6       29.95F WCI  29
FORT WAYNE     CLOUDY    32  26  78 SW9       29.98F WCI  24
HUNTINGTON*    CLOUDY    34  22  61 SW7       29.97F WCI  28
PERU/GRISSOM   PTCLDY    35  27  74 SW10      29.96F WCI  27
MARION*        CLEAR     31  19  60 S8        30.00F WCI  24

$$
INZ028>050-071400-
CENTRAL INDIANA

CITY           SKY/WX    TMP DP  RH WIND       PRES   REMARKS
LAFAYETTE      PTCLDY    34  25  69 SW3       29.98F
KOKOMO*          N/A     36  25  64 SW12      29.98F
MUNCIE*        CLOUDY    36  23  59 SW10      30.00F
INDIANAPOLIS   PTCLDY    33  22  63 S9        30.00F WCI  25

$$
MIZ043>046-050>051-056>058-064>065-071>073-077>080-071400-
SOUTHWEST LOWER MICHIGAN

CITY           SKY/WX    TMP DP  RH WIND       PRES   REMARKS
BATTLE CREEK   CLOUDY    34  27  75 S10       29.91F WCI  26
BENTON HARBOR  PTCLDY    38  28  67 S13       29.90F
COLDWATER*     CLOUDY    35  27  74 S6        29.93F WCI  30
HILLSDALE*     CLOUDY    30  26  82 S7        29.93F WCI  24
HOLLAND        CLOUDY    36  29  75 S10       29.88F
GRAND RAPIDS   CLOUDY    35  29  78 S12       29.88F WCI  27
KALAMAZOO      CLOUDY    34  27  75 S10       29.91F WCI  26
STURGIS*       CLOUDY    33  27  79 S7        29.92F WCI  27
THREE RIVERS*  CLOUDY    34  29  83 S8        29.92F WCI  27

$$
OHZ001>008-015>018-024>025-071400-
NORTHWEST OHIO

CITY           SKY/WX    TMP DP  RH WIND       PRES   REMARKS
DEFIANCE       CLOUDY    33  25  72 S6        29.98F WCI  28
FINDLAY        CLOUDY    32  25  75 S9        30.00F WCI  24
TOLEDO EXPRESS CLOUDY    33  25  72 SW6       29.98F WCI  28
TOLEDO METCALF CLOUDY    33  25  72 S8        30.00F WCI  26
LIMA           CLOUDY    33  24  69 S10       30.01F WCI  25

$$
AND FOR LAKE MICHIGAN COASTAL AND OPEN LAKE BUOY OBSERVATIONS

STATION/POSITION TEMP    WIND        PRES    VSBY  WAVE
                 AIR SEA DIR/SP/G                  HT/PER
                 (F)     (DEG/KT/KT) (MB)    (MI)  (FT/S)
CALUMET HARBOR    40     200/ 12/ 17 1011.7F
MICHIGAN CITY     37     160/ 14/ 17   N/A
BURNS HARBOR      39     190/ 15/ 18 1013.5F
SAINT JOSEPH      38     160/  5/ 13 1013.2S

$$
&&



USA.gov is the U.S. government's official web portal to all federal, state and local government web resources and services.